Glendive, MT

7:06 AM MST on December 12, 2019 (GMT -0700)
Dawson Community

Weather History for KGDV - October, 2019

Change the Weather History Date:

Sunday, October 6, 2019

  Actual Average Record
Temperature  
Mean Temperature 49 °F 52 °F  
Max Temperature 60 °F 65 °F 82 °F (2003)
Min Temperature 37 °F 39 °F 10 °F (2005)
Degree Days  
Heating Degree Days 16 13  
Month to date heating degree days 123 72  
Year to date heating degree days 5990 4471  
Since 1 July heating degree days 424 179  
Cooling Degree Days 0 0  
Month to date cooling degree days 0 0  
Year to date cooling degree days 465 382  
Since 1 July cooling degree days 465 382  
Moisture  
Dew Point 33 °F    
Average Humidity 58    
Maximum Humidity 79    
Minimum Humidity 35    
Precipitation  
Precipitation 0.00 in 0.05 in 0.80 in (2009)
Month to date precipitation 0.37 0.29  
Year to date precipitation 17.54 11.95  
Sea Level Pressure  
Sea Level Pressure 30.12 in    
Wind  
Wind Speed 18 mph (West)    
Max Wind Speed 25 mph    
Max Gust Speed 33 mph    
Visibility 10 miles    
Events      
T = Trace of Precipitation, MM = Missing Value Source: NWS Daily Summary

Daily Weather History Graph

Daily Weather History Graph

Search for Another Location

Airport or City:

Astronomy

Oct. 06, 2019 Rise Set
Actual Time 7:04 AM MDT 6:29 PM MDT
Civil Twilight 6:34 AM MDT 6:59 PM MDT
Nautical Twilight 5:58 AM MDT 7:34 PM MDT
Astronomical Twilight 5:23 AM MDT 8:10 PM MDT
Moon 3:39 PM MDT (10/6) No Moon Set
Length of Visible Light 12h 25m
Length of Day
11h 24m
First Quarter, 60% of the Moon is Illuminated
Oct 6
First Quarter
Oct 13
Full
Oct 21
Last Quarter
Oct 27
New
Nov 4
First Quarter

Hourly Weather History & Observations

Time (MDT) Temp. Windchill Dew Point Humidity Pressure Visibility Wind Dir Wind Speed Gust Speed Precip Events Conditions
12:56 AM 45.0 °F 37.4 °F 34.0 °F 65% 30.00 in 10.0 mi West 18.4 mph - N/A   Mostly Cloudy
1:56 AM 45.0 °F 37.6 °F 34.0 °F 65% 30.02 in 10.0 mi West 17.3 mph - N/A   Overcast
2:56 AM 45.0 °F 37.1 °F 34.0 °F 65% 30.03 in 10.0 mi West 19.6 mph 26.5 mph N/A   Overcast
3:56 AM 43.0 °F 34.8 °F 34.0 °F 71% 30.06 in 10.0 mi West 18.4 mph 24.2 mph N/A   Overcast
4:56 AM 41.0 °F 32.5 °F 33.1 °F 73% 30.08 in 10.0 mi West 17.3 mph - N/A   Clear
5:56 AM 42.1 °F 33.6 °F 33.1 °F 70% 30.09 in 10.0 mi West 18.4 mph 24.2 mph N/A   Overcast
6:56 AM 43.0 °F 34.8 °F 32.0 °F 65% 30.11 in 10.0 mi West 18.4 mph 25.3 mph N/A   Overcast
7:56 AM 43.0 °F 34.8 °F 32.0 °F 65% 30.13 in 10.0 mi West 18.4 mph - N/A   Overcast
8:56 AM 46.0 °F 38.0 °F 32.0 °F 58% 30.13 in 10.0 mi West 21.9 mph 29.9 mph N/A   Overcast
9:56 AM 48.9 °F - 32.0 °F 52% 30.14 in 10.0 mi WNW 25.3 mph 33.4 mph N/A   Overcast
10:56 AM 51.1 °F - 32.0 °F 48% 30.16 in 10.0 mi WNW 19.6 mph 28.8 mph N/A   Mostly Cloudy
11:56 AM 55.9 °F - 34.0 °F 44% 30.16 in 10.0 mi WNW 23.0 mph 28.8 mph N/A   Clear
12:56 PM 59.0 °F - 33.1 °F 38% 30.15 in 10.0 mi West 16.1 mph 27.6 mph N/A   Clear
1:56 PM 60.1 °F - 33.1 °F 36% 30.14 in 10.0 mi WNW 25.3 mph 31.1 mph N/A   Clear
2:56 PM 60.1 °F - 33.1 °F 36% 30.15 in 10.0 mi West 23.0 mph 28.8 mph N/A   Partly Cloudy
3:56 PM 60.1 °F - 32.0 °F 35% 30.14 in 10.0 mi West 23.0 mph 27.6 mph N/A   Partly Cloudy
4:56 PM 59.0 °F - 32.0 °F 36% 30.14 in 10.0 mi WNW 17.3 mph - N/A   Clear
5:56 PM 55.9 °F - 33.1 °F 42% 30.15 in 10.0 mi West 11.5 mph - N/A   Clear
6:56 PM 46.0 °F 41.9 °F 33.1 °F 61% 30.16 in 10.0 mi West 8.1 mph - N/A   Clear
7:56 PM 42.1 °F 37.1 °F 33.1 °F 70% 30.17 in 10.0 mi West 8.1 mph - N/A   Clear
8:56 PM 39.9 °F 33.9 °F 33.1 °F 77% 30.17 in 10.0 mi WNW 9.2 mph - N/A   Clear
9:56 PM 39.0 °F 33.4 °F 33.1 °F 79% 30.17 in 10.0 mi West 8.1 mph - N/A   Clear
10:56 PM 39.9 °F 36.7 °F 32.0 °F 73% 30.17 in 10.0 mi SW 4.6 mph - N/A   Clear
11:56 PM 37.9 °F 33.5 °F 32.0 °F 79% 30.15 in 10.0 mi SW 5.8 mph - N/A   Clear